Regional Weather Roundup
Issued by NWS

Home | Current Version | Previous Version | Graphics & Text | Print | Product List | Glossary On
Versions: 1 2 3 4 5 6 7 8 9 10 11 12 13 14 15 16 17 18 19 20 21 22 23 24 25 26 27 28 29 30 31 32 33 34 35 36 37 38 39 40 41 42 43 44 45 46 47 48 49 50
000
ASUS43 KMPX 200301
RWRMN
WEATHER ROUNDUP FOR MINNESOTA
NATIONAL WEATHER SERVICE TWIN CITIES/CHANHASSEN MN
900 PM CST SUN NOV 19 2017


NOTE: "FAIR" INDICATES FEW OR NO CLOUDS BELOW 12,000 FEET WITH NO
SIGNIFICANT WEATHER AND/OR OBSTRUCTIONS TO VISIBILITY. N/A MEANS
CURRENT SKY AND/OR WEATHER CONDITIONS ARE NOT AVAILABLE.

MNZ060>063-068>070-200400-
   Twin Cities Metro

CITY           SKY/WX    TMP DP  RH WIND       PRES   REMARKS
TWIN CITIES    CLOUDY    38  26  62 SW6       29.83F
ST PAUL        CLOUDY    29  25  85 SE5       29.85F WCI  24
CRYSTAL        CLOUDY    36  23  59 S6        29.81F
BLAINE         CLEAR     34  27  75 S7        29.81F WCI  28
LAKEVILLE      CLOUDY    36  27  69 CALM      29.84S
EDEN PRAIRIE   CLOUDY    36  24  62 SW9       29.82S
SOUTH ST PAUL  CLOUDY    32  25  74 S3        29.83F
LAKE ELMO      FAIR      32  27  80 S7        29.84S WCI  26
$$
MNZ001>005-007-008-013>017-022>024-027-028-200400-
   Northwest Minnesota

CITY           SKY/WX    TMP DP  RH WIND       PRES   REMARKS
BEMIDJI        CLEAR     16  13  86 CALM      29.72F
HALLOCK        PTCLDY    10   9  92 SE3       29.71F
ROSEAU         CLOUDY    19  14  79 CALM      29.73S
WARROAD        CLOUDY    18  12  79 SE3       29.73F
CROOKSTON      CLOUDY    25  23  93 SE5       29.73F WCI  19
FOSSTON        CLEAR     19  16  86 CALM      29.72F
DETROIT LAKES  CLOUDY    28  27  93 S3        29.73F
MOORHEAD       CLOUDY    27  21  80 CALM      29.74F
PARK RAPIDS    CLEAR     26  20  77 CALM      29.72F
MAHNOMEN       FAIR      26  22  84 S7        29.72F WCI  19
$$
MNZ006-009>011-018-025>026-200400-
   North Central Minnesota

CITY           SKY/WX    TMP DP  RH WIND       PRES   REMARKS
BAUDETTE       PTCLDY    16  11  80 SE5       29.73F WCI   9
FLAG ISLAND    PTCLDY    18  16  93 E3        29.73F
INTL FALLS     CLEAR     14  10  84 SE6       29.75F WCI   5
WASKISH        CLEAR     16  12  86 CALM      29.72F
BIG FORK       CLOUDY    10   9  92 CALM      29.74F
LONGVILLE      CLEAR     18  16  93 CALM      29.74F
GRAND RAPIDS   CLEAR     15  13  91 CALM      29.77F
CRANE LAKE     PTCLDY     9   9 100 CALM      29.80F
ORR            CLOUDY    16  10  79 E3        29.74F
COOK           CLOUDY    10   9  92 CALM      29.77F
WALKER         FAIR      26  21  83 CALM      29.73F
$$
MNZ012-019>021-037-200400-
   Northeast Minnesota

CITY           SKY/WX    TMP DP  RH WIND       PRES   REMARKS
DULUTH         CLOUDY    18  14  84 SE3       29.77F
ELY            CLOUDY    12  10  92 CALM      29.77F
HIBBING        PTCLDY    11   8  88 CALM      29.77F
EVELETH        CLOUDY    12   9  85 CALM      29.78F
DULUTH HARBOR  CLOUDY    27  21  80 CALM      29.82F
TWO HARBORS    PTCLDY    18  12  79 CALM      29.78F
SILVER BAY     PTCLDY    14  12  92 CALM      29.79F
GRAND MARAIS     N/A     21  12  68 W5        29.84F WCI  15
G MARAIS ARPRT CLOUDY    10   5  79 W3        29.76F
$$
MNZ029>031-032-039>041-046>048-054>057-064-200400-
   West Central Minnesota

CITY           SKY/WX    TMP DP  RH WIND       PRES   REMARKS
FERGUS FALLS   CLOUDY    28  21  74 S6        29.77F WCI  22
WHEATON        CLOUDY    34  21  60 S6        29.77F WCI  29
MORRIS         CLOUDY    34  25  69 SW6       29.76F WCI  29
ALEXANDRIA     CLOUDY    30  23  75 SW7       29.76F WCI  23
ELBOW LAKE     FAIR      26  22  85 S7        29.75F WCI  19
WADENA         CLEAR     21  19  93 CALM      29.73F
GLENWOOD       CLOUDY    32  25  74 SW6       29.77F WCI  26
APPLETON       MOCLDY    34  25  69 SW3       29.78S
BENSON         CLOUDY    34  25  69 W5        29.79F WCI  30
ORTONVILLE     CLOUDY    36  25  64 MISG      29.76F
MADISON        CLOUDY    39  27  60 SW8       29.77F
WILLMAR        FAIR      36  27  69 SW3       29.80S
$$
MNZ033>034-036-042>043-049>051-058-059-200400-
   Central Minnesota

CITY           SKY/WX    TMP DP  RH WIND       PRES   REMARKS
ST CLOUD       CLOUDY    27  24  89 S5        29.78F WCI  22
SAUK CENTRE    FAIR      32  25  74 CALM      29.77F
PAYNESVILLE    CLOUDY    37  27  67 SW3       29.79S
AITKIN         CLEAR     25  21  86 CALM      29.74F
PINE RIVER     CLEAR     19  18  93 CALM      29.78F
BRAINERD       CLEAR     27  21  78 S3        29.75F
STAPLES        CLEAR     21  18  86 CALM      29.74F
LONG PRAIRIE   FAIR      28  25  86 S6        29.76F WCI  22
LITTLE FALLS   CLOUDY    28  21  74 CALM      29.77F
LITCHFIELD     CLOUDY    36  27  69 CALM      29.81S
BUFFALO        CLOUDY    34  25  69 SW3       29.82S
MAPLE LAKE     CLOUDY    36  27  71 S3        29.81S
HUTCHINSON     PTCLDY    33  26  75 CALM      29.82F
$$
MNZ037-044-045-052-053-200400-
   East Central Minnesota

CITY           SKY/WX    TMP DP  RH WIND       PRES   REMARKS
PRINCETON      CLOUDY    27  23  86 CALM      29.79F
MORA           CLEAR     23  19  86 CALM      29.81F
CAMBRIDGE      CLOUDY    30  19  64 S5        29.80F WCI  25
RUSH CITY      CLEAR     26  20  77 S3        29.81S
MOOSE LAKE     CLEAR     21  18  86 CALM      29.76F
HINCKLEY       FAIR      25  21  86 CALM      29.79F
CLOQUET        CLOUDY    19  14  79 CALM      29.77F
MCGREGOR       CLEAR     23  19  86 CALM      29.76F
$$
MNZ071>073-080-081-089-090-097-098-200400-
   Southwest Minnesota

CITY           SKY/WX    TMP DP  RH WIND       PRES   REMARKS
MONTEVIDEO     CLOUDY    37  25  60 W5        29.78F
GRANITE FALLS  CLOUDY    38  27  62 S9        29.81F
CANBY          CLOUDY    45  26  46 SW9       29.78F
MARSHALL       CLOUDY    42  25  50 SW9       29.80F
REDWOOD FALLS  CLOUDY    37  23  56 SW12      29.80F
OLIVIA         CLOUDY    36  27  69 S7        29.80F
PIPESTONE      CLOUDY    34  23  64 S5        29.81F WCI  30
WINDOM         CLOUDY    37  21  52 S5        29.83F
WORTHINGTON    CLOUDY    37  26  64 S9        29.84F
JACKSON        CLOUDY    36  28  75 S7        29.85F
SLAYTON        CLOUDY    35  24  64 SW12      29.83F WCI  26
$$
MNZ065>067-074>077-082>085-091>093-200400-
   South Central Minnesota

CITY           SKY/WX    TMP DP  RH WIND       PRES   REMARKS
MANKATO        CLOUDY    37  26  64 S7        29.85F
NEW ULM        CLOUDY    36  25  64 CALM      29.83F
ST JAMES       CLOUDY    37  27  65 S10       29.85F
FAIRMONT       CLOUDY    38  27  64 SW13      29.86F
GLENCOE        CLOUDY    37  27  67 SW5       29.82S
FARIBAULT      CLOUDY    36  27  69 S3        29.86S
OWATONNA       CLOUDY    36  28  75 S8        29.86F
WASECA         CLOUDY    34  28  80 S9        29.87F WCI  26
ALBERT LEA     CLOUDY    39  25  56 S8        29.88F
$$
MNZ078>079-086>088-094>096-200400-
   Southeast Minnesota

CITY           SKY/WX    TMP DP  RH WIND       PRES   REMARKS
ROCHESTER      CLOUDY    34  27  75 S15       29.88F WCI  24
RED WING       CLOUDY    30  23  74 CALM      29.85F
STANTON        CLOUDY    36  28  72 SW9       29.83F
DODGE CENTER   CLOUDY    34  27  75 S12G18    29.86F WCI  25
WINONA         CLEAR     36  27  69 SW9       29.90S
PRESTON        CLOUDY    33  25  72 SW14      29.90S WCI  24
$$
ABBREVIATIONS USED IN REMARKS
   TC - TEMPERATURES IN CELSIUS
  WCI - WIND CHILL INDEX
   HX - HEAT INDEX
  VSB - VISIBILITY
$$




USA.gov is the U.S. government's official web portal to all federal, state and local government web resources and services.